Regional Weather Roundup
Issued by NWS Bismarck, ND

Home | Current Version | Previous Version | Text Only | Print | Product List | Glossary On
Versions: 1 2 3 4 5 6 7 8 9 10 11 12 13 14 15 16 17 18 19 20 21 22 23 24 25 26 27 28 29 30 31 32 33 34 35 36 37 38 39 40 41 42 43 44 45 46 47 48 49 50
000
ASUS43 KBIS 230902
RWRBIS

NWR BROADCAST TEXT
NATIONAL WEATHER SERVICE BISMARCK ND
400 AM CDT SAT SEP 23 2017

NOTE: "FAIR" INDICATES FEW OR NO CLOUDS BELOW 12,000 FEET WITH NO
SIGNIFICANT WEATHER AND/OR OBSTRUCTIONS TO VISIBILITY.


CITY           SKY/WX    TMP DP  RH WIND       PRES   REMARKS
WILLISTON      CLOUDY    44  42  93 N5        30.09R
MINOT          CLOUDY    48  45  89 N6        30.05S
MINOT AFB      CLOUDY    47  44  91 N5        30.03S
BISMARCK       CLOUDY    49  47  93 N12       29.98F
DICKINSON      NOT AVBL
GARRISON         N/A     45  45 100 N10       30.02F
HETTINGER ARPT CLOUDY    43  41  93 N7        30.05R
JAMESTOWN      CLOUDY    50  47  89 N12       29.99R
CARRINGTON     CLOUDY    48  46  93 N7G14     30.01R
HAZEN          CLOUDY    46  46 100 N8        30.04S
LINTON         CLOUDY    48  43  81 NE6G14    29.99R
MANDAN         CLOUDY    46  46 100 N10G17    30.01R
RUGBY          CLOUDY    48  46  93 NW7       30.03R
STANLEY        FAIR      43  43 100 NW8       30.07F
TIOGA          CLOUDY    43  43 100 N6        30.08S
WATFORD CITY   CLOUDY    45  43  93 NW6       30.08R
$$

CITY           SKY/WX    TMP DP  RH WIND       PRES   REMARKS
GRAND FORKS    CLOUDY    51  51 100 NW15      29.91S
GRAND FORKS AF CLOUDY    50  50 100 N9        29.93R
DEVILS LAKE    CLOUDY    48  43  82 N16       29.99S
FARGO          CLOUDY    54  52  93 NW15      29.91R
CANDO          CLOUDY    46  48 100 N12G20    30.01S
CAVALIER       CLOUDY    50  46  87 NW16G22   29.93F
GRAFTON        CLOUDY    50  50 100 NW15      29.94S
GWINNER        CLOUDY    54  50  87 N9G21     29.92R
LANGDON        CLOUDY    46  46 100 N15       29.98R
ROLLA          CLOUDY    45  45 100 N12       30.02R
WALHALLA       FAIR     N/A N/A N/A NW14G22   29.96S
$$

CITY           SKY/WX    TMP DP  RH WIND       PRES   REMARKS
ABERDEEN       RAIN      53  51  93 NW13      30.00R
MOBRIDGE       CLOUDY    51  46  83 NE12      29.99R
BUFFALO          N/A     42  39  89 N7        30.00R
GLASGOW        CLOUDY    43  41  93 E5        30.07F
SIDNEY         CLOUDY    43  40  89 N7        30.09F
WOLF POINT     CLOUDY    41  39  93 NE3       30.10F
GLENDIVE       CLOUDY    43  38  82 N8        30.09R
MILES CITY     CLOUDY    43  38  82 NE6       30.08R
BAKER          CLOUDY    42  37  82 N8        30.07S
$$

CITY           SKY/WX    TMP DP  RH WIND       PRES   REMARKS
BILLINGS       CLOUDY    39  38  96 NE14      30.04F
GREAT FALLS    CLOUDY    36  34  92 W3        30.08S
$$





USA.gov is the U.S. government's official web portal to all federal, state and local government web resources and services.